Overview Statistics Trail Chart Weather Telemetry Raw packets
 

This is the latest recevied weather packets stored in our database for station/object HS5XHC-1. If no packets are shown the sender has not sent any weather packets the latest 10 day(s).

<< 39 40 41 42 43 44 45 >>
Time Temp. Humidity Pressure Rain* Wind** Luminosity Snow
1777272437 36.67° C 32% 963 hPa - - 0 W/m² -
1777271813 36.11° C 33% 964 hPa - - 0 W/m² -
1777271189 36.11° C 31% 964 hPa - - 0 W/m² -
1777270565 36.11° C 32% 964 hPa - - 0 W/m² -
1777269941 36.11° C 33% 964 hPa - - 0 W/m² -
1777269317 35.56° C 33% 965 hPa - - 0 W/m² -
1777268693 36.11° C 35% 965 hPa - - 0 W/m² -
1777268069 35.56° C 36% 965 hPa - - 0 W/m² -
1777267445 35.56° C 34% 965 hPa - - 0 W/m² -
1777266823 35.56° C 35% 966 hPa - - 0 W/m² -
1777266197 35° C 36% 966 hPa - - 0 W/m² -
1777265574 35° C 36% 966 hPa - - 0 W/m² -
1777264950 33.89° C 37% 966 hPa - - 0 W/m² -
1777264326 33.89° C 36% 966 hPa - - 0 W/m² -
1777263704 33.89° C 39% 966 hPa - - 0 W/m² -
1777263078 33.33° C 38% 966 hPa - - 0 W/m² -
1777262454 33.33° C 41% 967 hPa - - 0 W/m² -
1777261830 32.78° C 43% 967 hPa - - 0 W/m² -
1777261206 32.22° C 42% 967 hPa - - 0 W/m² -
1777260582 32.78° C 43% 967 hPa - - 0 W/m² -
1777259958 32.22° C 44% 967 hPa - - 0 W/m² -
1777259334 32.22° C 44% 967 hPa - - 0 W/m² -
1777258710 31.11° C 46% 967 hPa - - 0 W/m² -
1777258086 30.56° C 50% 967 hPa - - 0 W/m² -
1777257436 30° C 50% 968 hPa - - 0 W/m² -

* Rain since midnight (hover to see other rain measurements)
** Current wind speed in m/s (hover to see current wind gust speed)